Regional Weather Roundup
Issued by NWS

Home | Current Version | Previous Version | Text Only | Print | Product List | Glossary On
Versions: 1 2 3 4 5 6 7 8 9 10 11 12 13 14 15 16 17 18 19 20 21 22 23 24 25 26 27 28 29 30 31 32 33 34 35 36 37 38 39 40 41 42 43 44 45 46 47 48 49 50
000
ASUS44 KFWD 241010
RWRTX
NORTH TEXAS HOURLY WEATHER ROUNDUP
NATIONAL WEATHER SERVICE FORT WORTH TX
500 AM CDT WED MAY 24 2017

NOTE: "FAIR" INDICATES FEW OR NO CLOUDS BELOW 12,000 FEET WITH NO
SIGNIFICANT WEATHER AND/OR OBSTRUCTIONS TO VISIBILITY.

TXZ118-119-241100-
DALLAS/FORT WORTH METROPLEX

CITY           SKY/WX    TMP DP  RH WIND       PRES   REMARKS
DFW AIRPORT    CLEAR     59  49  69 NW12      29.83S
DALLAS LOVE    CLEAR     58  50  75 NW7       29.84F
FTW MEACHAM    CLEAR     55  50  83 NW6       29.85S
DAL-EXECUTIVE  CLEAR     56  52  86 W9        29.83F
FTW-ALLIANCE   CLEAR     55  49  80 W9        29.85S
FTW-NAS-JRB    CLEAR     58  52  80 NW9       29.86S
FTW-SPINKS     CLEAR     55  51  85 W10       29.87F
ARLINGTON      CLEAR     56  51  84 W6        29.84F
GRAND PRAIRIE  CLEAR     57  50  77 W7        29.86F
ADDISON        CLEAR     55  50  81 W5        29.86S
MESQUITE       CLEAR     56  51  84 W7        29.83F
LANCASTER      CLEAR     54  50  87 W6        29.85S
$$

TXZ091>094-102>105-117-120-121-131>134-241100-
NORTH CENTRAL TEXAS

CITY           SKY/WX    TMP DP  RH WIND       PRES   REMARKS
SHRMAN/DENISON CLEAR     49  48  95 CALM      29.84S
GAINESVILLE    CLEAR     52  46  80 NW6       29.86F
BOWIE          CLEAR     53  47  82 W6        29.87S
BRIDGEPORT     PTCLDY    53  47  81 W6        29.89S
DECATUR        CLEAR     52  46  81 W3        29.87S
DENTON         CLEAR     51  48  89 W8        29.84F
MCKINNEY       CLEAR     54  51  90 NW5       29.83S
BONHAM         PTCLDY    50  48  93 W6        29.82R
GREENVILLE     CLEAR     55  52  88 CALM      29.82S
ROCKWALL       CLEAR     57  52  82 NW5       29.83S
TERRELL        CLEAR     53  50  89 W7        29.82F
WAXAHACHIE     CLEAR     54  51  90 W7        29.86F
CLEBURNE       CLEAR     54  52  94 NW7       29.88F
GRANBURY       CLEAR     52  49  91 CALM      29.89F
$$

TXZ083>090-098>101-113>116-127>130-139>142-154-155-241100-
WESTERN NORTH TEXAS

CITY           SKY/WX    TMP DP  RH WIND       PRES   REMARKS
WICHITA FALLS  PTCLDY    51  46  83 NW8       29.88F
WF-KICKAPOO    CLEAR     54  47  76 W9        29.91S
VERNON         MOCLDY    51  43  73 NW7       29.92S
ABILENE        CLEAR     51  47  86 SW3       29.93F
ABILENE-DYESS  CLEAR     54  45  72 W8        29.92F
GRAHAM           N/A     45  32  60 CALM      29.88F
BRECKENRIDGE   CLEAR     51  49  94 SW3       29.90F
CISCO          CLEAR     54  48  82 W7        29.92F
EASTLAND       CLEAR     52  48  86 NW3       29.91F
RANGER         CLEAR     52  48  86 W6        29.90F
MINERAL WELLS  CLEAR     51  48  89 W5        29.86F
STEPHENVILLE   CLEAR     52  48  86 CALM      29.91F
COMANCHE       CLEAR     55  48  77 MISG      29.92S
BROWNWOOD      PTCLDY    46  46 100 CALM      29.93F
COLEMAN        CLEAR     53  45  75 W8        29.94F
$$

TXZ143>147-156>162-174-175-241100-
CENTRAL TEXAS

CITY           SKY/WX    TMP DP  RH WIND       PRES   REMARKS
WACO           CLEAR     55  51  86 W10       29.86F
WACO-MCGREGOR  CLEAR     57  50  77 NW9       29.87F
HILLSBORO      CLEAR     53  51  93 CALM      29.87S
CORSICANA      CLEAR     56  53  90 W8        29.84F
MEXIA          CLEAR     54  51  89 W6        29.85S
HEARNE         PTCLDY    53  53 100 CALM      29.88S
CAMERON        CLEAR     55  51  88 W8        29.87F
TEMPLE         CLEAR     53  51  93 W6        29.89F
KILLEEN        CLEAR     55  49  79 W13       29.88F
KILLEEN-SKYLRK CLEAR     52  49  89 CALM      29.90S
FORT HOOD      CLEAR     55  49  82 W12       29.86F
HAMILTON       CLEAR     53  48  83 W9        29.91S
LAMPASAS       CLEAR     55  51  85 W9        29.90F
$$

TXZ095>097-106>112-122>126-135>138-148>153-164>167-241100-
EAST TEXAS

CITY           SKY/WX    TMP DP  RH WIND       PRES   REMARKS
PARIS          CLEAR     54  48  82 NW8       29.79S
SULPHUR SPRNGS CLEAR     56  52  85 NW8       29.81F
MOUNT PLEASANT PTCLDY    56  51  83 NW8       29.79F
GILMER         PTCLDY    56  52  86 W5        29.78S
MINEOLA        CLEAR     55  52  88 W3        29.79F
TYLER          CLEAR     55  53  93 W7        29.79F
LONGVIEW       CLEAR     55  55 100 NW6       29.77S
MARSHALL       CLEAR     55  52  89 W8        29.78S
ATHENS         CLEAR     52  52 100 CALM      29.81S
PALESTINE      CLEAR     52  52 100 CALM      29.84S FOG
JACKSONVILLE   CLEAR     55  54  97 W7        29.82S
HENDERSON      CLEAR    N/A N/A N/A W6        29.80S
CENTER         SUNNY     60  59  95 W3        29.79S
NACOGDOCHES    CLEAR     55  52  88 SW3       29.79S
LUFKIN         PTCLDY    56  54  93 W6        29.81R
$$

SUPPLEMENTAL OBSERVATIONS (NWS FORT WORTH AREA)

CITY           SKY/WX    TMP DP  RH WIND       PRES   REMARKS
CADDO GRASSLND   N/A     52  46  82 W1          N/A
LBJ GRASSLAND    N/A     48  45  87 CALM        N/A
POSSUM KINGDOM   N/A     52  46  82 W7          N/A
GRANBURY         N/A     52  48  87 CALM        N/A
MCGREGOR         N/A     55  48  76 NW3         N/A
TEMPLE           N/A     54  48  82 W5          N/A
$$

SUPPLEMENTAL OBSERVATIONS (NWS NORMAN AREA)

CITY           SKY/WX    TMP DP  RH WIND       PRES   REMARKS
GOODLETT         N/A     49  40  70 W13       29.92F
ODELL            N/A     45  43  91 NW3       29.93S
CROWELL          N/A     52  43  69 NW9       29.93S
KNOX CITY        N/A     49  43  82 W6        29.94S
SEYMOUR          N/A     51  46  82 W9        29.92S
MILLERS CREEK    N/A     48  43  81 N5          N/A
$$

SUPPLEMENTAL OBSERVATIONS (NWS SAN ANGELO AREA)

CITY           SKY/WX    TMP DP  RH WIND       PRES   REMARKS
WEINERT          N/A     50  45  84 NW3       29.93S
THROCKMORTON     N/A     55  48  76 W7        29.92S
STAMFORD         N/A     52  50  91 W7        29.94S
CLYDE            N/A     50  46  85 W5        29.95S
HAMBY            N/A     45  41  87 SE1         N/A
$$

SUPPLEMENTAL OBSERVATIONS (NWS SHREVEPORT AREA)

CITY           SKY/WX    TMP DP  RH WIND       PRES   REMARKS
TEXARKANA        N/A     55  52  88 NW5         N/A
LINDEN           N/A     55  50  82 NW5         N/A
N SABINE NF      N/A     55  54  94 MISG        N/A
$$

SUPPLEMENTAL OBSERVATIONS ARE A COLLECTION OF AUTOMATED INSTRUMENTS
THAT ARE MAINTAINED BY A VARIETY OF FEDERAL AND STATE AGENCIES.
CERTAIN ELEMENTS...SUCH AS HUMIDITY VALUES AND SUSTAINED WIND
SPEEDS...MAY BE APPROXIMATED.





USA.gov is the U.S. government's official web portal to all federal, state and local government web resources and services.